Regional Weather Roundup
Issued by NWS

Home | Current Version | Previous Version | Text Only | Print | Product List | Glossary Off
Versions: 1 2 3 4 5 6 7 8 9 10 11 12 13 14 15 16 17 18 19 20 21 22 23 24 25 26 27 28 29 30 31 32 33 34 35 36 37 38 39 40 41 42 43 44 45 46 47 48 49 50

000
ASUS45 KSLC 291710
RWRUT

UTAH REGIONAL WEATHER ROUNDUP
NATIONAL WEATHER SERVICE SALT LAKE CITY UT
1100 AM MDT FRI MAY 29 2015

UTZ001>011-023>025-291800-

NORTHERN UTAH

CITY           SKY/WX    TMP DP  RH WIND       PRES   REMARKS
BRIGHAM CITY   SUNNY     62  47  56 CALM      30.23S
HILL AFB       SUNNY     63  43  47 VRB3      30.23S
LOGAN          SUNNY     59  48  67 N6        30.23F
OGDEN          SUNNY     65  42  43 VRB3      30.22R
PROVO AIRPORT  MOSUNNY   63  45  51 SW5       30.23F
SALT LAKE CITY MOSUNNY   67  41  38 VRB5      30.20S
VERNAL         PTSUNNY   60  42  51 VRB6      30.28R
WENDOVER       SUNNY     66  48  52 S5        30.20S
HEBER CITY     SUNNY     59  41  51 CALM      30.26F
WEST JORDAN    SUNNY     66  43  42 CALM      30.22S

$$

UTZ012>022-026-027-291800-

SOUTHERN/CENTRAL UTAH

CITY           SKY/WX    TMP DP  RH WIND       PRES   REMARKS
BLANDING       SUNNY     68  33  27 NW5G17    30.29S
BRYCE CANYON   MOSUNNY   61  32  33 CALM      30.33S
CEDAR CITY     SUNNY     66  46  48 VRB3      30.21S
DELTA          SUNNY     70  37  29 E6        30.21S
HANKSVILLE     SUNNY     70  37  30 E6        30.22S
MILFORD        SUNNY     68  48  48 NE10      30.19F
MOAB/CYNLANDS  SUNNY     70  37  29 CALM      30.19S
PRICE          SUNNY     65  35  33 SE7       30.25S
ST GEORGE      SUNNY     81  41  24 NW6       30.07F
KANAB          SUNNY     75  37  25 NE9       30.21F

$$

REGIONAL REPORTS     COLORADO/ARIZONA

CITY           SKY/WX    TMP DP  RH WIND       PRES   REMARKS
CRAIG, CO      CLOUDY    54  42  64 W6        30.31R
GRAND JUNCTION SUNNY     63  42  46 VRB3      30.23S
RIFLE          MOSUNNY   60  38  43 VRB3      30.26F
MONTROSE       SUNNY     61  41  47 VRB3      30.27F
CORTEZ         SUNNY     67  31  26 VRB5G16   30.22F
PAGE, AZ       SUNNY     77  40  26 VRB7      30.15S
GRAND CANYON   MOSUNNY   71  34  25 VRB3      30.28R
KINGMAN        SUNNY     86  21   9 W5        30.06S
FLAGSTAFF      SUNNY     67  33  28 VRB6      30.30R

$$

REGIONAL REPORTS    NEVADA/IDAHO/WYOMING

CITY           SKY/WX    TMP DP  RH WIND       PRES   REMARKS
LAS VEGAS, NV  MOSUNNY   88  35  15 E6        29.95S
ELY            MOSUNNY   63  42  46 E3        30.24F
ELKO           SUNNY     67  43  41 VRB3      30.18F
POCATELLO, ID  MOSUNNY   63  46  54 CALM      30.23F
BURLEY         SUNNY     67  48  50 E12       30.18F
EVANSTON, WY   MOSUNNY   55  39  54 VRB3      30.32S
ROCK SPRINGS   MOSUNNY   53  40  61 E3        30.33S
KEMMERER       CLOUDY    55  37  50 E9        30.34S

$$



USA.gov is the U.S. government's official web portal to all federal, state and local government web resources and services.